Torna al catalogo

FREGAT DEB

LostUNKNOWN
NORAD 46241·DEBRIS·🇷🇺 Russia

Lanciato Jul 18, 2011 da Baikonur Cosmodrome

Loading…

Prossimi Passaggi (prossime 24 ore)

TLE

ObsoletoSource: Space-Track

Epoca: Mar 19, 2022, 14:15 UTC

1 46241U 11037KB  22078.59433097  .00861012  00000-0  24508+0 0  9994
2 46241  51.1414 222.9906 1536248 183.4826 175.4179 11.90731498 64418

Traccia FREGAT DEB in tempo reale con AllMySat

Download on the App Store